Regional Weather Roundup
Issued by NWS Columbia, SC

Home | Current Version | Previous Version | Text Only | Print | Product List | Glossary On
Versions: 1 2 3 4 5 6 7 8 9 10 11 12 13 14 15 16 17 18 19 20 21 22 23 24 25 26 27 28 29 30 31 32 33 34 35 36 37 38 39 40 41 42 43 44 45 46 47 48 49 50
996
ASUS42 KCAE 241610
RWRCAE
REGIONAL WEATHER ROUNDUP
NATIONAL WEATHER SERVICE COLUMBIA SC
1200 PM EDT TUE MAY 24 2016

NOTE: "FAIR" INDICATES FEW OR NO CLOUDS BELOW 12,000 FEET WITH NO
SIGNIFICANT WEATHER AND/OR OBSTRUCTIONS TO VISIBILITY.

NOT ALL STATIONS ARE QUALITY CONTROLLED BY THE NATIONAL
WEATHER SERVICE. USE DATA WITH CAUTION...ESPECIALLY
DEWPOINT OBSERVATIONS.

SCZ001>056-GAZ040-063>065-077-241700-
...UPSTATE SOUTH CAROLINA...

CITY           SKY/WX    TMP DP  RH WIND       PRES   REMARKS
ANDERSON       SUNNY     75  54  47 CALM      30.18S
LIBERTY        SUNNY     76  53  44 W7        30.18S
SPARTANBURG    SUNNY     73  50  43 SW5       30.17S
CLEMSON        SUNNY     76  54  46 VRB3      30.19S
GREENVILLE     SUNNY     75  51  43 S9        30.18F
GREENWOOD      SUNNY     78  54  43 NE3       30.18S
GREER          SUNNY     75  52  44 W8        30.17S
ROCK HILL      SUNNY     73  52  47 S7        30.18S
CHESTER        SUNNY     73  48  40 CALM      30.19R
LAURENS        SUNNY     73  52  46 SE5       30.18R


...CENTRAL SOUTH CAROLINA...

CITY           SKY/WX    TMP DP  RH WIND       PRES   REMARKS
COLUMBIA APT   MOSUNNY   80  50  34 CALM      30.15S
COLUMBIA OWENS SUNNY     79  46  31 SE3       30.17S
MCENTIRE ANGB  SUNNY     78  48  35 VRB1      30.17S
ORANGEBURG     SUNNY     79  56  45 SW3       30.17S
SUMTER SHAW    SUNNY     76  50  39 NW6       30.15S
NEWBERRY       SUNNY     75  50  41 SW6       30.20R
AIKEN          FAIR      77  55  47 CALM      30.19S
BARNWELL       FAIR      81  61  50 S8        30.17R
MANNING        FAIR      73  50  43 SW6       30.18R
LANCASTER      SUNNY     73  50  43 CALM      30.18S
WINNSBORO      SUNNY     75  50  41 CALM      30.17S


...EASTERN AND COASTAL SOUTH CAROLINA...

CITY           SKY/WX    TMP DP  RH WIND       PRES   REMARKS
MYRTLE BEACH   SUNNY     75  52  43 SW7       30.17S
N MYRTLE BCH   SUNNY     76  53  44 CALM      30.15S
CONWAY         FAIR      75  50  41 CALM      30.15S
MARION         FAIR      73  52  46 W6        30.15S
HARTSVILLE     FAIR      73  50  43 W5        30.17R
FLORENCE       SUNNY     78  53  41 MISG      30.16S
DARLINGTON     SUNNY     75  57  53 VRB6      30.16S
CHARLESTON APT MOSUNNY   79  51  37 VRB5      30.18R
MOUNT PLEASANT FAIR      79  52  38 CALM      30.18R
WALTERBORO     SUNNY     79  55  44 SE3       30.19R
BEAUFORT       MOSUNNY   79  58  48 VRB3      30.18R


...EASTERN GEORGIA...

CITY           SKY/WX    TMP DP  RH WIND       PRES   REMARKS
AUGUSTA BUSH F SUNNY     79  60  52 SE5       30.15S
AUGUSTA DANIEL SUNNY     78  58  49 CALM      30.17R
THOMSON        SUNNY     79  63  57 CALM      30.21R
WASHINGTON     FAIR      81  63  54 CALM      30.16S
CLAXTON        FAIR      82  61  48 S6        30.16S
SYLVANIA       SUNNY     82  61  49 S7        30.17S
STATESBORO     SUNNY     82  61  48 SW3G9     30.16R
SAVANNAH       MOSUNNY   81  59  47 VRB5      30.17R


...SOUTHERN NORTH CAROLINA...

CITY           SKY/WX    TMP DP  RH WIND       PRES   REMARKS
CHARLOTTE      MOSUNNY   74  52  46 VRB6      30.18R
WADESBORO      SUNNY     76  49  38 SW3       30.16S
ROCKINGHAM     SUNNY     76  54  46 W8        30.15S
RUTHERFORDTON  SUNNY     73  54  51 CALM      30.18S
ASHEVILLE      SUNNY     72  47  40 NE3       30.20S

$$




USA.gov is the U.S. government's official web portal to all federal, state and local government web resources and services.